Location: Newark
(47.4417°N, 1.1394°W)
Time: 10:30:33
(UTC+00:00)

Envisat - Pass Details

Date: 22 November 2019
Orbit: 764 x 766 km, 98.1° (Epoch: 10 December)

Event Time Altitude Azimuth Distance (km) Brightness Sun altitude
Rises 17:05:27 0° 139° (SE) 3,223 6.0 -7.4°
Reaches altitude 10° 17:07:54 10° 130° (SE) 2,301 5.2 -7.8°
Maximum altitude 17:12:28 35° 66° (ENE) 1,221 3.6 -8.6°
Drops below altitude 10° 17:17:04 10° 2° (N) 2,314 5.3 -9.3°
Sets 17:19:32 0° 354° (N) 3,244 6.1 -9.7°
